Cleveland, OH

9:42 PM EST on January 21, 2017 (GMT -0500)
Cleveland Hopkins International Airport

Weather History for KCLE - January, 2011

Change the Weather History Date:

Saturday, January 1, 2011

  Actual Average Record
Temperature  
Mean Temperature 44 °F 29 °F  
Max Temperature 58 °F 35 °F 69 °F (1876)
Min Temperature 29 °F 22 °F -4 °F (1968)
Degree Days  
Heating Degree Days 21 36  
Month to date heating degree days 21 36  
Since 1 July heating degree days 2252 2143  
Cooling Degree Days 0 0  
Month to date cooling degree days 0 0  
Year to date cooling degree days 0 0  
Moisture  
Dew Point 41 °F    
Average Humidity 73    
Maximum Humidity 96    
Minimum Humidity 50    
Precipitation  
Precipitation 0.39 in 0.10 in 0.81 in (1979)
Month to date precipitation 0.39 0.10  
Year to date precipitation 0.39 0.10  
Snow  
Snow 0.00 in 0.60 in - ()
Month to date snowfall 0.0 0.6  
Since 1 July snowfall 12.7 19.2  
Snow Depth 0.00 in    
Sea Level Pressure  
Sea Level Pressure 29.89 in    
Wind  
Wind Speed 15 mph (SW)    
Max Wind Speed 32 mph    
Max Gust Speed 41 mph    
Visibility 8 miles    
Events Rain    
T = Trace of Precipitation, MM = Missing Value Source: NWS Daily Summary

Daily Weather History Graph

Daily Weather History Graph

Search for Another Location

Airport or City:

Trip Planner

Search our weather history database for the weather conditions in past years. The results will help you decide how hot, cold, wet, or windy it might be!

Date:

Astronomy

Jan. 01, 2011 Rise Set
Actual Time 7:53 AM EST 5:08 PM EST
Civil Twilight 7:22 AM EST 5:39 PM EST
Nautical Twilight 6:47 AM EST 6:14 PM EST
Astronomical Twilight 6:14 AM EST 6:47 PM EST
Moon 5:26 AM EST (1/1) 2:43 PM EST (1/1)
Length of Visible Light 10h 17m
Length of Day
9h 14m
Waning Crescent, 8% of the Moon is Illuminated
Jan 1
Waning Crescent
Jan 4
New
Jan 12
First Quarter
Jan 19
Full
Jan 26
Last Quarter

Hourly Weather History & Observations

Time (EST) Temp. Windchill Dew Point Humidity Pressure Visibility Wind Dir Wind Speed Gust Speed Precip Events Conditions
12:51 AM 55.9 °F - 46.9 °F 72% 29.93 in 10.0 mi South 10.4 mph - N/A   Scattered Clouds
1:51 AM 55.9 °F - 46.9 °F 72% 29.92 in 10.0 mi South 13.8 mph - N/A   Scattered Clouds
2:51 AM 55.9 °F - 46.0 °F 69% 29.90 in 10.0 mi South 12.7 mph - N/A   Mostly Cloudy
3:51 AM 55.9 °F - 46.0 °F 69% 29.88 in 10.0 mi South 10.4 mph - N/A   Mostly Cloudy
4:51 AM 54.0 °F - 48.0 °F 80% 29.89 in 3.0 mi SSW 16.1 mph 25.3 mph 0.03 in Rain Heavy Rain
5:51 AM 52.0 °F - 48.9 °F 89% 29.87 in 7.0 mi South 10.4 mph - 0.12 in Rain Light Rain
6:51 AM 52.0 °F - 50.0 °F 93% 29.86 in 8.0 mi South 16.1 mph 23.0 mph 0.04 in Rain Light Rain
7:51 AM 54.0 °F - 51.1 °F 90% 29.84 in 6.0 mi South 13.8 mph 24.2 mph 0.03 in Rain Light Rain
8:51 AM 54.0 °F - 51.1 °F 90% 29.85 in 5.0 mi South 11.5 mph 20.7 mph 0.07 in Rain Light Rain
9:51 AM 54.0 °F - 51.1 °F 90% 29.84 in 10.0 mi South 13.8 mph 24.2 mph 0.01 in Rain Light Rain
10:51 AM 55.0 °F - 52.0 °F 89% 29.83 in 9.0 mi South 12.7 mph 19.6 mph 0.04 in Rain Light Rain
11:01 AM 55.4 °F - 51.8 °F 88% 29.82 in 10.0 mi South 16.1 mph - 0.00 in Rain Light Rain
11:35 AM 55.4 °F - 53.6 °F 94% 29.79 in 10.0 mi South 15.0 mph 27.6 mph 0.01 in Rain Light Rain
11:51 AM 55.9 °F - 52.0 °F 87% 29.79 in 10.0 mi South 16.1 mph 26.5 mph 0.01 in Rain Light Rain
12:51 PM 55.9 °F - 53.1 °F 90% 29.77 in 5.0 mi SSW 15.0 mph - 0.00 in Rain Light Rain
1:39 PM 46.4 °F 38.5 °F 42.8 °F 87% 29.81 in 1.8 mi WNW 21.9 mph 41.4 mph 0.01 in Rain Heavy Rain
1:46 PM 46.4 °F 38.3 °F 44.6 °F 93% 29.82 in 2.0 mi West 23.0 mph 31.1 mph 0.02 in Rain Light Rain
1:51 PM 45.0 °F 36.6 °F 43.0 °F 93% 29.83 in 5.0 mi West 21.9 mph 29.9 mph 0.03 in Rain Light Rain
1:58 PM 44.6 °F 35.9 °F 42.8 °F 93% 29.83 in 5.0 mi West 23.0 mph 31.1 mph 0.00 in Rain Light Rain
2:51 PM 45.0 °F 38.5 °F 42.1 °F 90% 29.84 in 4.0 mi WSW 13.8 mph 21.9 mph 0.00 in Rain Light Rain
2:58 PM 44.6 °F 38.8 °F 42.8 °F 93% 29.83 in 4.0 mi WSW 11.5 mph - 0.00 in Rain Light Rain
3:08 PM 44.6 °F 37.8 °F 41.0 °F 87% 29.83 in 9.0 mi WSW 15.0 mph - 0.01 in   Overcast
3:51 PM 43.0 °F 37.7 °F 33.1 °F 68% 29.84 in 10.0 mi SW 9.2 mph - 0.01 in   Overcast
4:51 PM 43.0 °F 38.2 °F 36.0 °F 76% 29.88 in 10.0 mi SW 8.1 mph - N/A   Overcast
5:51 PM 42.1 °F 34.9 °F 32.0 °F 67% 29.92 in 10.0 mi WSW 13.8 mph - N/A   Overcast
6:51 PM 39.0 °F 29.0 °F 23.0 °F 53% 29.95 in 10.0 mi West 20.7 mph 25.3 mph N/A   Scattered Clouds
7:51 PM 37.0 °F 26.4 °F 25.0 °F 62% 29.98 in 10.0 mi WSW 20.7 mph 24.2 mph N/A   Overcast
8:51 PM 36.0 °F 27.1 °F 23.0 °F 59% 29.99 in 10.0 mi WSW 13.8 mph 21.9 mph N/A   Overcast
9:51 PM 34.0 °F 23.4 °F 21.0 °F 59% 30.01 in 10.0 mi West 17.3 mph 23.0 mph N/A   Mostly Cloudy
10:51 PM 30.9 °F 19.4 °F 21.0 °F 67% 30.05 in 10.0 mi West 17.3 mph - N/A   Mostly Cloudy
11:19 PM 30.2 °F 18.9 °F 21.2 °F 69% 30.05 in 10.0 mi West 16.1 mph - N/A   Mostly Cloudy
11:51 PM 28.9 °F 16.5 °F 19.0 °F 67% 30.09 in 10.0 mi West 18.4 mph 21.9 mph N/A   Mostly Cloudy